Track FLOCK 3P 57 now! 10-day predictions FLOCK 3P 57 is classified as:
1 41978U 17008AG 22137.42647593 .00070748 00000-0 21611-2 0 9999 2 41978 97.2781 204.3124 0005497 335.5181 24.5800 15.33612512292171